Walla Walla, WA
on Wednesday, January 9, 2013

Wednesday
Previous Day Next Day
Daily Summary
 ActualAverage (KPDT)Record (KPDT)
Temperature
Mean Temperature °F 34°F  
Max Temperature 57°F 41°F 67°F (1990)
Min Temperature 37°F 28°F -18°F (1909)
Degree Days
Heating Degree Days 18 31  
Month to date heating degree days 282  
Since 1 July heating degree days 2519  
Cooling Degree Days 0 0  
Month to date cooling degree days 0  
Year to date cooling degree days 0  
Moisture
Dew Point 34°F   
Average Humidity 57    
Maximum Humidity 73    
Minimum Humidity 36    
Precipitation
Precipitation 0.00 in 0.05 in 0.61 in (1989)
Month to date precipitation 0.45  
Year to date precipitation 0.45  
Snow
Snow 0.00 in 0.20 in 6.50 in (1975)
Month to date snowfall 1.4  
Year to date snowfall 1.4  
Since 1 July snowfall 8.9  
Snow Depth in   
Wind
Wind Speed 20 mph   
Max Wind Speed 33 mph   
Max Gust Speed 45 mph   
Visibility 10 miles   
Events Rain   

Key: T is trace of precipitation, MM is missing value
Source: NWS Daily Summary
Time(PST)TemperatureDew PointHumidity Pressure Visibility Wind DirectionWind SpeedGust SpeedPrecipitationEvents Conditions
12:53 AM 55.0°F 34.0°F 45% 29.89 in 10.0 miles South 13.8 mph - N/A   Overcast
1:53 AM 57.0°F 33.1°F 40% 29.87 in 10.0 miles South 19.6 mph 32.2 mph N/A   Mostly Cloudy
2:53 AM 57.0°F 32.0°F 39% 29.85 in 10.0 miles South 20.7 mph 27.6 mph N/A   Overcast
3:53 AM 57.9°F 30.9°F 36% 29.83 in 10.0 miles SSE 20.7 mph 29.9 mph N/A   Overcast
4:53 AM 57.9°F 33.1°F 39% 29.79 in 10.0 miles South 33.4 mph 43.7 mph N/A   Overcast
5:53 AM 53.1°F 39.0°F 59% 29.79 in 10.0 miles SSE 31.1 mph 38.0 mph N/A   Overcast
6:53 AM 53.1°F 37.9°F 57% 29.75 in 10.0 miles SSE 33.4 mph 44.9 mph 0.00 in   Overcast
7:53 AM 55.0°F 36.0°F 49% 29.71 in 10.0 miles SSE 31.1 mph 40.3 mph N/A   Overcast
8:53 AM 55.9°F 36.0°F 47% 29.66 in 10.0 miles SSE 27.6 mph 39.1 mph N/A   Mostly Cloudy
10:53 AM 57.9°F 34.0°F 41% 29.65 in 10.0 miles South 26.5 mph 39.1 mph N/A   Overcast
11:53 AM 57.0°F 34.0°F 42% 29.64 in 10.0 miles South 26.5 mph 35.7 mph N/A   Overcast
12:11 PM 50.0°F 37.4°F 62% 29.69 in 10.0 miles West 19.6 mph 34.5 mph 0.00 in Rain Light Rain
12:53 PM 50.0°F 37.0°F 61% 29.73 in 10.0 miles SW 13.8 mph 24.2 mph 0.00 in   Overcast
1:53 PM 48.0°F 37.0°F 66% 29.75 in 10.0 miles WSW 18.4 mph 25.3 mph 0.00 in   Overcast
2:53 PM 46.0°F 36.0°F 68% 29.77 in 10.0 miles South 18.4 mph - N/A   Overcast
3:53 PM 44.1°F 33.1°F 65% 29.79 in 10.0 miles South 13.8 mph 24.2 mph N/A   Overcast
4:53 PM 43.0°F 32.0°F 65% 29.80 in 10.0 miles SSW 15.0 mph - N/A   Overcast
5:53 PM 42.1°F 32.0°F 67% 29.83 in 10.0 miles SSW 13.8 mph - N/A   Overcast
6:53 PM 41.0°F 30.9°F 67% 29.84 in 10.0 miles SSW 13.8 mph 23.0 mph N/A   Overcast
7:53 PM 41.0°F 30.9°F 67% 29.85 in 10.0 miles SSW 12.7 mph - N/A   Overcast
8:53 PM 39.9°F 30.0°F 68% 29.86 in 10.0 miles SW 13.8 mph - N/A   Overcast
9:53 PM 39.0°F 30.0°F 70% 29.88 in 10.0 miles SSW 11.5 mph 19.6 mph N/A   Overcast
10:53 PM 37.9°F 28.9°F 70% 29.88 in 10.0 miles South 16.1 mph - N/A   Overcast
11:53 PM 37.0°F 28.9°F 73% 29.88 in 10.0 miles South 10.4 mph - N/A   Mostly Cloudy
Moon Phase
Jan. 09 Jan. 11 Jan. 18 Jan. 26 Feb. 03
Sunrise:07:34 AM (PST) Moon Rise:05:18 AM (PST)1/9
Sunset:04:27 PM (PST) Moon Set:02:33 PM (PST)1/9

Copyright © 2014 The Weather Underground, Inc.